Location: Fort Worth, Tx
(32.7431°N, 97.3695°W)
Time: 07:22:38
(UTC-05:00)

Explorer 11/Cluster Stage 4 - Pass Details

Date: 10 February 2026
Orbit: 463 x 1176 km, 28.8° (Epoch: 5 March)

Event Time Altitude Azimuth Distance (km) Brightness Sun altitude
Rises 19:48:50 0° 262° (W) 2,668 11.8 -8.6°
Reaches altitude 10° 19:50:57 10° 257° (WSW) 1,854 10.2 -9.1°
Maximum altitude 19:55:07 53° 180° (S) 787 6.7 -9.9°
Enters shadow 19:59:55 11° 105° (ESE) 2,153 8.3 -10.9°
